Location: Observatoire
(46.1952°N, 5.3391°E)
Time: 16:30:14
(UTC+01:00)

Injun/Solrad 3 - Pass Details

Date: 24 February 2026
Orbit: 872 x 984 km, 66.8° (Epoch: 7 March)

Event Time Altitude Azimuth Distance (km) Brightness Sun altitude
Rises 18:34:51 0° 328° (NNW) 3,573 11.3 -3.8°
Reaches altitude 10° 18:37:24 10° 332° (NNW) 2,643 10.6 -4.2°
Maximum altitude 18:43:30 62° 52° (NE) 1,064 8.0 -5.2°
Drops below altitude 10° 18:49:46 10° 133° (SE) 2,702 10.0 -6.3°
Sets 18:52:22 0° 137° (SE) 3,657 10.6 -6.8°
